When you browse on this site, cookies collect data to enhance your experience and personalize the content and advertising you see.
Visit our Privacy Policy to learn more. By continuing to use the site, you agree to this use of cookies and data.
  • en France
  • Liste des pays
  • À 7 jours
  • Température de l'eau
  • Carte satellitaire
  • Carte météo
  • Widgets météo
  • user-avatar
    Se connecter

    Météo par heure à Oran

    Ce jour, 24 Mars, Dimanche

    Heure Température Précipitation Vent Pression Humidité
    00:00 +12°C° 0 mm 4 m/s 754 mmHg 86%
    01:00 +12°C° 0 mm 4 m/s 754 mmHg 83%
    02:00 +12°C° 0 mm 4 m/s 754 mmHg 80%
    03:00 +12°C° 0 mm 4 m/s 754 mmHg 77%
    04:00 +12°C° 0 mm 4 m/s 753 mmHg 73%
    05:00 +12°C° 0 mm 4 m/s 753 mmHg 69%
    06:00 +12°C° 0 mm 4 m/s 753 mmHg 64%
    07:00 +14°C° 0 mm 4 m/s 754 mmHg 58%
    08:00 +17°C° 0 mm 4 m/s 754 mmHg 51%
    09:00 +19°C° 0 mm 4 m/s 754 mmHg 44%
    10:00 +20°C° 0 mm 4 m/s 754 mmHg 41%
    11:00 +21°C° 0 mm 3 m/s 755 mmHg 39%
    12:00 +24°C° 0 mm 3 m/s 755 mmHg 37%
    13:00 +22°C° 0.1 mm 3 m/s 754 mmHg 41%
    14:00 +21°C° 0.1 mm 3 m/s 754 mmHg 45%
    15:00 +20°C° 0.1 mm 3 m/s 754 mmHg 49%
    16:00 +19°C° 0.2 mm 4 m/s 753 mmHg 53%
    17:00 +18°C° 0.2 mm 4 m/s 753 mmHg 58%
    18:00 +17°C° 0.2 mm 4 m/s 753 mmHg 62%
    19:00 +15°C° 0.2 mm 5 m/s 753 mmHg 64%
    20:00 +15°C° 0.2 mm 5 m/s 754 mmHg 65%
    21:00 +15°C° 0.2 mm 6 m/s 754 mmHg 67%
    22:00 +14°C° 0.1 mm 5 m/s 754 mmHg 66%
    23:00 +14°C° 0.1 mm 4 m/s 754 mmHg 65%

    Demain, 25 Mars, Lundi

    Heure Température Précipitation Vent Pression Humidité
    00:00 +14°C° 0.1 mm 4 m/s 754 mmHg 64%
    01:00 +14°C° 0 mm 3 m/s 753 mmHg 64%
    02:00 +15°C° 0 mm 2 m/s 753 mmHg 63%
    03:00 +14°C° 0 mm 2 m/s 752 mmHg 63%
    04:00 +14°C° 0 mm 1 m/s 753 mmHg 64%
    05:00 +14°C° 0 mm 1 m/s 753 mmHg 65%
    06:00 +14°C° 0 mm 1 m/s 753 mmHg 66%
    07:00 +16°C° 0 mm 1 m/s 753 mmHg 60%
    08:00 +19°C° 0 mm 1 m/s 753 mmHg 53%
    09:00 +18°C° 0 mm 0 m/s 753 mmHg 47%
    10:00 +22°C° 0 mm 1 m/s 753 mmHg 43%
    11:00 +23°C° 0 mm 2 m/s 753 mmHg 39%
    12:00 +25°C° 0 mm 2 m/s 752 mmHg 35%
    13:00 +23°C° 0 mm 4 m/s 752 mmHg 36%
    14:00 +23°C° 0 mm 5 m/s 751 mmHg 38%
    15:00 +23°C° 0 mm 7 m/s 750 mmHg 39%
    16:00 +22°C° 0 mm 6 m/s 750 mmHg 45%
    17:00 +20°C° 0 mm 6 m/s 750 mmHg 51%
    18:00 +19°C° 0 mm 5 m/s 750 mmHg 57%
    19:00 +17°C° 0 mm 5 m/s 751 mmHg 61%
    20:00 +17°C° 0 mm 4 m/s 751 mmHg 66%
    21:00 +15°C° 0 mm 4 m/s 751 mmHg 71%
    22:00 +15°C° 0 mm 4 m/s 751 mmHg 71%
    23:00 +15°C° 0 mm 4 m/s 751 mmHg 71%

    Après-demain, 26 Mars, Mardi

    Heure Température Précipitation Vent Pression Humidité
    00:00 +15°C° 0 mm 4 m/s 750 mmHg 70%
    01:00 +15°C° 0 mm 4 m/s 750 mmHg 73%
    02:00 +14°C° 0 mm 4 m/s 750 mmHg 75%
    03:00 +14°C° 0 mm 4 m/s 749 mmHg 77%
    04:00 +14°C° 0 mm 4 m/s 749 mmHg 77%
    05:00 +14°C° 0 mm 4 m/s 749 mmHg 76%
    06:00 +14°C° 0 mm 4 m/s 750 mmHg 76%
    07:00 +15°C° 0 mm 4 m/s 750 mmHg 71%
    08:00 +16°C° 0 mm 5 m/s 750 mmHg 66%
    09:00 +19°C° 0 mm 5 m/s 751 mmHg 61%
    10:00 +20°C° 0.1 mm 5 m/s 750 mmHg 56%
    11:00 +21°C° 0.1 mm 6 m/s 750 mmHg 50%
    12:00 +23°C° 0.1 mm 7 m/s 750 mmHg 44%
    13:00 +23°C° 0 mm 8 m/s 749 mmHg 44%
    14:00 +24°C° 0 mm 10 m/s 749 mmHg 43%
    15:00 +24°C° 0 mm 12 m/s 748 mmHg 42%
    16:00 +22°C° 0 mm 12 m/s 748 mmHg 50%
    17:00 +19°C° 0 mm 12 m/s 748 mmHg 57%
    18:00 +17°C° 0 mm 12 m/s 748 mmHg 65%
    19:00 +17°C° 0 mm 12 m/s 749 mmHg 65%
    20:00 +15°C° 0 mm 12 m/s 749 mmHg 65%
    21:00 +14°C° 0 mm 12 m/s 750 mmHg 65%
    22:00 +14°C° 0.2 mm 11 m/s 750 mmHg 62%
    23:00 +14°C° 0.2 mm 11 m/s 750 mmHg 59%

    27 Mars, Mercredi

    Heure Température Précipitation Vent Pression Humidité
    00:00 +13°C° 0.2 mm 11 m/s 751 mmHg 57%
    01:00 +13°C° 0.2 mm 10 m/s 750 mmHg 59%
    02:00 +13°C° 0.2 mm 10 m/s 750 mmHg 62%
    03:00 +12°C° 0.2 mm 9 m/s 750 mmHg 64%
    04:00 +12°C° 1.5 mm 9 m/s 750 mmHg 68%
    05:00 +11°C° 1.5 mm 9 m/s 750 mmHg 72%
    06:00 +11°C° 1.5 mm 9 m/s 750 mmHg 76%
    07:00 +11°C° 0.9 mm 9 m/s 750 mmHg 76%
    08:00 +11°C° 0.9 mm 9 m/s 750 mmHg 75%
    09:00 +12°C° 0.9 mm 9 m/s 751 mmHg 75%
    10:00 +13°C° 0.2 mm 9 m/s 751 mmHg 71%
    11:00 +13°C° 0.2 mm 9 m/s 751 mmHg 67%
    12:00 +14°C° 0.2 mm 10 m/s 751 mmHg 63%
    13:00 +14°C° 0.1 mm 10 m/s 751 mmHg 64%
    14:00 +13°C° 0.1 mm 10 m/s 751 mmHg 65%
    15:00 +13°C° 0.1 mm 11 m/s 751 mmHg 66%
    16:00 +12°C° 0.5 mm 10 m/s 752 mmHg 70%
    17:00 +12°C° 0.5 mm 10 m/s 752 mmHg 74%
    18:00 +11°C° 0.5 mm 9 m/s 753 mmHg 77%
    19:00 +11°C° 0.8 mm 9 m/s 754 mmHg 78%
    20:00 +11°C° 0.8 mm 8 m/s 754 mmHg 79%
    21:00 +11°C° 0.8 mm 8 m/s 755 mmHg 80%
    22:00 +11°C° 0.1 mm 8 m/s 755 mmHg 79%
    23:00 +11°C° 0.1 mm 7 m/s 755 mmHg 78%

    28 Mars, Jeudi

    Heure Température Précipitation Vent Pression Humidité
    00:00 +11°C° 0.1 mm 7 m/s 755 mmHg 77%
    01:00 +11°C° 0 mm 6 m/s 755 mmHg 78%
    02:00 +11°C° 0 mm 6 m/s 755 mmHg 78%
    03:00 +11°C° 0 mm 6 m/s 755 mmHg 78%
    04:00 +10°C° 0 mm 5 m/s 755 mmHg 79%
    05:00 +10°C° 0 mm 5 m/s 755 mmHg 81%
    06:00 +10°C° 0 mm 5 m/s 756 mmHg 82%
    07:00 +12°C° 0 mm 5 m/s 756 mmHg 75%
    08:00 +13°C° 0 mm 6 m/s 757 mmHg 68%
    09:00 +15°C° 0 mm 6 m/s 757 mmHg 62%
    10:00 +15°C° 0 mm 7 m/s 757 mmHg 59%
    11:00 +16°C° 0 mm 8 m/s 757 mmHg 56%
    12:00 +17°C° 0 mm 8 m/s 757 mmHg 54%
    13:00 +16°C° 0 mm 8 m/s 756 mmHg 56%
    14:00 +16°C° 0 mm 8 m/s 756 mmHg 59%
    15:00 +15°C° 0 mm 8 m/s 756 mmHg 62%
    16:00 +15°C° 0 mm 7 m/s 756 mmHg 66%
    17:00 +14°C° 0 mm 7 m/s 756 mmHg 69%
    18:00 +14°C° 0 mm 7 m/s 756 mmHg 72%
    19:00 +13°C° 0 mm 6 m/s 756 mmHg 76%
    20:00 +12°C° 0 mm 5 m/s 757 mmHg 80%
    21:00 +12°C° 0 mm 4 m/s 757 mmHg 84%
    22:00 +11°C° 0 mm 4 m/s 757 mmHg 86%
    23:00 +11°C° 0 mm 4 m/s 757 mmHg 87%

    29 Mars, Vendredi

    Heure Température Précipitation Vent Pression Humidité
    00:00 +11°C° 0 mm 3 m/s 757 mmHg 88%
    01:00 +11°C° 0 mm 3 m/s 756 mmHg 88%
    02:00 +11°C° 0 mm 3 m/s 756 mmHg 88%
    03:00 +10°C° 0 mm 3 m/s 756 mmHg 88%
    04:00 +10°C° 0 mm 3 m/s 756 mmHg 87%
    05:00 +10°C° 0 mm 3 m/s 756 mmHg 86%
    06:00 +11°C° 0 mm 3 m/s 756 mmHg 86%
    07:00 +12°C° 0 mm 4 m/s 756 mmHg 78%
    08:00 +14°C° 0 mm 4 m/s 756 mmHg 70%
    09:00 +16°C° 0 mm 5 m/s 756 mmHg 62%
    10:00 +17°C° 0 mm 5 m/s 756 mmHg 59%
    11:00 +19°C° 0 mm 6 m/s 756 mmHg 56%
    12:00 +20°C° 0 mm 6 m/s 756 mmHg 54%
    13:00 +20°C° 0 mm 7 m/s 755 mmHg 55%
    14:00 +20°C° 0 mm 7 m/s 755 mmHg 57%
    15:00 +18°C° 0 mm 8 m/s 754 mmHg 59%
    16:00 +18°C° 0 mm 7 m/s 754 mmHg 63%
    17:00 +17°C° 0 mm 7 m/s 754 mmHg 67%
    18:00 +16°C° 0 mm 7 m/s 754 mmHg 72%
    19:00 +15°C° 0 mm 6 m/s 755 mmHg 75%
    20:00 +14°C° 0 mm 5 m/s 755 mmHg 78%
    21:00 +13°C° 0 mm 4 m/s 755 mmHg 81%
    22:00 +13°C° 0 mm 4 m/s 755 mmHg 84%
    23:00 +13°C° 0 mm 4 m/s 755 mmHg 86%
    Voir plus